Location: Brachbach
(49.1847°N, 9.7240°E)
Time: 05:29:04
(UTC+00:00)

Cosmos 2219 Rocket - Pass Details

Date: 16 August 2024
Orbit: 826 x 846 km, 71.0° (Epoch: 16 September)

Event Time Altitude Azimuth Distance (km) Brightness Sun altitude
Exits shadow 00:13:32 63° 257° (WSW) 946 2.2 -26.3°
Maximum altitude 00:14:14 70° 301° (WNW) 903 2.3 -26.3°
Drops below altitude 10° 00:19:56 10° 25° (NNE) 2,481 5.6 -26.0°
Sets 00:22:24 0° 28° (NNE) 3,419 6.6 -25.9°
